Regional Weather Roundup
Issued by NWS

Home | Current Version | Previous Version | Text Only | Print | Product List | Glossary On
Versions: 1 2 3 4 5 6 7 8 9 10 11 12 13 14 15 16 17 18 19 20 21 22 23 24 25 26 27 28 29 30 31 32 33 34 35 36 37 38 39 40 41 42 43 44 45 46 47 48 49
000
ASUS45 KSLC 292310
RWRUT

UTAH REGIONAL WEATHER ROUNDUP
NATIONAL WEATHER SERVICE SALT LAKE CITY UT
500 PM MDT SAT AUG 29 2015

UTZ001>011-023>025-300000-

NORTHERN UTAH

CITY           SKY/WX    TMP DP  RH WIND       PRES   REMARKS
BRIGHAM CITY     N/A     94  33  11 S12       29.95F
HILL AFB       MOSUNNY   92  43  18 S15       30.00F
LOGAN          SUNNY     92  41  17 S12       29.97F
OGDEN            N/A     94  40  15 S14G20    29.96F HX  90
PROVO AIRPORT  PTSUNNY   91  43  18 VRB3      29.99F
SALT LAKE CITY PTSUNNY   95  39  14 SE20G26   29.93F HX  91
VERNAL         MOSUNNY   89  35  14 W5        30.10F
WENDOVER         N/A     97  39  13 SW18G29   29.90F HX  92
HEBER CITY       N/A     91  36  14 W12       30.07F
WEST JORDAN    SUNNY     93  45  18 SE14      29.98F

$$

UTZ012>022-026-027-300000-

SOUTHERN/CENTRAL UTAH

CITY           SKY/WX    TMP DP  RH WIND       PRES   REMARKS
BLANDING         N/A     87  32  13 S3        30.26F
BRYCE CANYON     N/A     79  41  25 S10       30.32F
CEDAR CITY       N/A     87  39  18 S15       30.11F
DELTA            N/A     96  36  12 SW22G29   29.99F HX  91
HANKSVILLE       N/A     95  34  11 SE9       30.05F HX  90
MILFORD          N/A     95  43  16 S23       30.04F HX  91
MOAB/CYNLANDS  SUNNY     94  36  13 W9        30.05F
PRICE            N/A     88  30  12 S8        30.16F
ST GEORGE        N/A    102  50  17 CALM      29.89F HX  99
KANAB            N/A     91  46  21 S12G17    30.13F

$$

REGIONAL REPORTS     COLORADO/ARIZONA

CITY           SKY/WX    TMP DP  RH WIND       PRES   REMARKS
CRAIG, CO      MOSUNNY   87  31  13 MISG      30.18F
GRAND JUNCTION SUNNY     91  38  15 VRB3      30.09F
RIFLE          SUNNY     86  38  18 NW6       30.14F
MONTROSE       SUNNY     88  36  15 N6        30.17F
CORTEZ         SUNNY     88  38  17 S8        30.19F
PAGE, AZ         N/A     99  37  11 N8        30.02F HX  94
GRAND CANYON   PTSUNNY   82  42  24 W10G16    30.25F
KINGMAN        PTSUNNY   99  48  17 S7        29.97F HX  95
FLAGSTAFF      PTSUNNY   77  46  33 S14       30.29F

$$

REGIONAL REPORTS    NEVADA/IDAHO/WYOMING

CITY           SKY/WX    TMP DP  RH WIND       PRES   REMARKS
LAS VEGAS, NV    N/A    106  44  12 SW12G21   29.78F HX 101
ELY              N/A     88  37  16 S20G33    30.09F
ELKO             N/A     91  33  12 W22G28    29.93F
POCATELLO, ID  MOSUNNY   92  40  16 S21G31    29.92F
EVANSTON, WY   PTSUNNY   84  34  16 SW16G28   30.21F
ROCK SPRINGS   SUNNY     85  28  12 SE6       30.17F
KEMMERER       CLOUDY    81  32  17 W15G22    30.22F

$$



USA.gov is the U.S. government's official web portal to all federal, state and local government web resources and services.